W8CEN Weather Reports


time (UTC)temp
C
wind
direction
speed
KPH
gust
KPH
rain 1hr
cm
rain 24hr
cm
rain mn
cm
humidity
%
barometer
mb
20260506153323 15 342 0.0 1.6 0.00 0.38 0.38 50 991.2
20260506152820 15 46 1.6 1.6 0.00 0.38 0.38 48 991.2
20260506152317 15 281 1.6 6.4 0.00 0.38 0.38 52 991.2
20260506151816 14 222 1.6 1.6 0.00 0.38 0.38 52 991.2
20260506151312 14 42 1.6 1.6 0.00 0.38 0.38 47 991.1
20260506150809 13 337 0.0 1.6 0.00 0.38 0.38 52 990.9
20260506150306 14 254 1.6 3.2 0.00 0.38 0.38 48 991.0
20260506145803 13 2 1.6 1.6 0.00 0.38 0.38 50 990.8
20260506145259 13 21 4.8 9.7 0.00 0.38 0.38 49 990.9
20260506144757 13 49 6.4 11.3 0.00 0.38 0.38 45 990.7
20260506144254 13 342 1.6 3.2 0.00 0.38 0.38 47 990.8
20260506143752 14 337 1.6 1.6 0.00 0.38 0.38 56 990.8
20260506143248 13 344 0.0 0.0 0.00 0.38 0.38 55 990.6
20260506142747 14 7 1.6 1.6 0.00 0.38 0.38 50 990.6
20260506142245 14 329 1.6 3.2 0.00 0.38 0.38 55 990.7
20260506141743 13 267 0.0 1.6 0.00 0.38 0.38 59 990.7
20260506141241 13 85 1.6 1.6 0.00 0.38 0.38 56 990.6
20260506140738 13 8 0.0 1.6 0.00 0.38 0.38 56 990.5
20260506140235 12 252 1.6 1.6 0.00 0.38 0.38 60 990.7
20260506135731 12 54 0.0 0.0 0.00 0.38 0.38 62 990.6
20260506135228 12 41 0.0 0.0 0.00 0.38 0.38 63 990.3
20260506134725 12 22 4.8 6.4 0.00 0.38 0.38 57 990.6
20260506134221 12 333 0.0 1.6 0.00 0.38 0.38 65 990.2
20260506133719 12 2 1.6 1.6 0.00 0.38 0.38 66 990.1
20260506133215 12 343 0.0 0.0 0.00 0.38 0.38 68 990.1
20260506132712 12 147 0.0 0.0 0.00 0.38 0.38 69 990.2
20260506132209 11 348 0.0 1.6 0.00 0.38 0.38 76 990.0
20260506131707 11 2 0.0 0.0 0.00 0.38 0.38 79 989.9
20260506131203 10 6 0.0 0.0 0.00 0.38 0.38 79 989.8
20260506130700 10 293 0.0 1.6 0.00 0.38 0.38 81 989.8
20260506130157 10 176 1.6 1.6 0.00 0.38 0.38 82 990.0
20260506125655 10 291 0.0 1.6 0.00 0.38 0.38 86 989.6
20260506125152 9 328 0.0 0.0 0.00 0.38 0.38 87 989.6
20260506124650 9 328 0.0 0.0 0.00 0.38 0.38 87 989.5
20260506124148 9 281 0.0 1.6 0.00 0.38 0.38 89 989.7
20260506123645 8 311 0.0 1.6 0.00 0.38 0.38 91 989.3
20260506123144 8 336 0.0 0.0 0.00 0.38 0.38 93 989.3
20260506122640 8 307 0.0 0.0 0.00 0.38 0.38 93 989.2
20260506122138 7 253 1.6 1.6 0.00 0.38 0.38 93 989.2
20260506121635 7 271 1.6 1.6 0.00 0.38 0.38 94 989.2
20260506121131 7 316 0.0 0.0 0.00 0.38 0.38 95 989.0
20260506120629 7 201 0.0 1.6 0.00 0.38 0.38 95 988.8
20260506120126 7 302 0.0 0.0 0.00 0.38 0.38 95 988.9
20260506115625 7 332 0.0 0.0 0.00 0.38 0.38 95 988.8
20260506115123 7 246 1.6 1.6 0.00 0.38 0.38 96 988.6
20260506114620 7 323 0.0 0.0 0.00 0.38 0.38 96 988.8
20260506114118 7 315 0.0 0.0 0.00 0.38 0.38 96 988.8
20260506113616 7 233 1.6 3.2 0.00 0.38 0.38 96 988.9
20260506113113 7 313 3.2 3.2 0.00 0.38 0.38 96 988.7
20260506112609 7 291 0.0 0.0 0.00 0.38 0.38 96 988.8
20260506112107 6 254 1.6 1.6 0.00 0.38 0.38 96 988.6
20260506111604 6 249 1.6 1.6 0.00 0.38 0.38 97 988.8
20260506111102 6 308 1.6 3.2 0.00 0.38 0.38 97 988.3
20260506110559 6 271 1.6 1.6 0.00 0.38 0.38 97 988.5
20260506110056 6 268 1.6 1.6 0.00 0.38 0.38 97 988.2
20260506105552 6 253 3.2 3.2 0.00 0.38 0.38 97 987.9
20260506105050 6 296 0.0 0.0 0.00 0.38 0.38 97 987.7
20260506104548 6 258 1.6 1.6 0.00 0.38 0.38 97 987.7
20260506104045 6 253 1.6 1.6 0.00 0.38 0.38 97 987.5
20260506103542 6 257 1.6 1.6 0.00 0.38 0.38 98 987.5
20260506103039 7 266 1.6 1.6 0.00 0.38 0.38 98 987.5
20260506102537 7 280 0.0 0.0 0.00 0.38 0.38 98 987.3
20260506102034 6 314 0.0 0.0 0.00 0.38 0.38 98 987.6
20260506101531 7 317 0.0 0.0 0.00 0.38 0.38 98 987.5
20260506101028 7 235 3.2 3.2 0.00 0.38 0.38 98 987.8
20260506100526 7 252 3.2 3.2 0.00 0.38 0.38 98 987.5
20260506100024 7 302 0.0 0.0 0.00 0.38 0.38 98 987.2
20260506095523 7 304 0.0 0.0 0.00 0.38 0.38 98 987.3
20260506095018 7 249 1.6 1.6 0.00 0.38 0.38 98 987.1
20260506094517 7 328 0.0 0.0 0.00 0.38 0.38 98 987.0
20260506094014 7 321 0.0 0.0 0.00 0.38 0.38 98 987.2
20260506093512 7 321 0.0 0.0 0.00 0.38 0.38 98 987.3
20260506093009 7 321 0.0 0.0 0.00 0.38 0.38 98 987.3
20260506092507 7 319 0.0 0.0 0.00 0.38 0.38 98 987.6
20260506092003 7 279 0.0 0.0 0.00 0.38 0.38 98 987.5
20260506091502 7 296 0.0 0.0 0.00 0.38 0.38 98 987.7
20260506090958 7 304 0.0 0.0 0.00 0.38 0.38 98 987.6
20260506090456 7 319 0.0 0.0 0.00 0.38 0.38 98 987.6
20260506085952 7 324 0.0 0.0 0.00 0.38 0.38 98 987.6
20260506085450 7 313 0.0 0.0 0.13 0.38 0.38 98 987.9
20260506084946 6 276 0.0 0.0 0.13 0.38 0.38 98 987.6
20260506084443 6 347 0.0 0.0 0.00 0.36 0.36 98 987.5
20260506083939 7 322 0.0 0.0 0.00 0.36 0.36 98 987.8
20260506083437 7 328 0.0 0.0 0.00 0.36 0.36 98 988.0
20260506082933 7 331 0.0 0.0 0.00 0.36 0.36 98 987.8
20260506082431 7 325 0.0 0.0 0.18 0.36 0.36 98 987.6
20260506081926 7 332 0.0 0.0 0.18 0.36 0.36 98 987.1
20260506081425 7 332 0.0 0.0 0.00 0.33 0.33 98 987.0
20260506080922 7 333 0.0 0.0 0.00 0.33 0.33 98 987.4
20260506080418 7 332 0.0 0.0 0.00 0.33 0.33 98 987.5
20260506073403 7 339 0.0 0.0 0.36 0.30 0.30 98 987.5
20260506072859 7 330 0.0 0.0 0.18 0.28 0.28 98 987.6
20260506072357 7 348 0.0 0.0 0.00 0.25 0.25 98 987.7
20260506071854 7 340 0.0 0.0 0.00 0.25 0.25 98 987.8
20260506071352 7 341 0.0 0.0 0.00 0.25 0.25 98 987.8
20260506070849 7 325 0.0 0.0 0.00 0.25 0.25 98 987.6
20260506070346 7 334 0.0 0.0 0.13 0.25 0.25 98 987.7
20260506062323 7 304 0.0 0.0 0.00 0.20 0.20 98 987.9
20260506061819 7 327 0.0 0.0 0.13 0.20 0.20 98 987.8
20260506061316 7 333 0.0 0.0 0.13 0.20 0.20 97 987.5
20260506060814 7 333 0.0 0.0 0.00 0.18 0.18 98 987.6
20260506060312 7 333 0.0 0.0 0.00 0.18 0.18 97 987.5
20260506051243 8 308 0.0 1.6 0.13 0.10 0.10 98 987.9
20260506050741 8 341 0.0 0.0 0.13 0.10 0.10 98 987.7
20260506050239 8 313 0.0 0.0 0.18 0.08 0.08 98 987.7
20260506044729 8 320 0.0 0.0 0.13 0.05 0.05 98 987.7
20260506044227 8 311 0.0 0.0 0.00 0.03 0.03 98 987.8
20260506043724 8 320 0.0 0.0 0.18 0.03 0.03 98 987.6
20260506043221 8 318 0.0 0.0 0.18 0.03 0.03 98 987.8
20260506042720 8 322 0.0 0.0 0.00 0.00 0.00 98 987.5
20260506042218 8 323 0.0 0.0 0.00 0.00 0.00 98 987.8
20260506041716 8 302 0.0 1.6 0.00 0.00 0.00 98 987.8
20260506041213 8 329 0.0 0.0 0.00 0.00 0.00 98 987.7
20260506040710 8 309 0.0 0.0 0.00 0.00 0.00 98 987.6
20260506040207 8 343 0.0 0.0 0.00 0.00 0.00 98 987.7
20260506035704 8 325 0.0 0.0 0.00 1.75 1.75 98 987.4
20260506035201 8 330 0.0 0.0 0.00 1.75 1.75 98 987.8
20260506034657 8 337 0.0 0.0 0.00 1.75 1.75 98 987.6
20260506034155 8 324 0.0 0.0 0.18 1.75 1.75 98 987.6
20260506033652 8 312 0.0 0.0 0.18 1.75 1.75 98 987.6
20260506033149 8 324 0.0 0.0 0.00 1.73 1.73 98 987.4
20260506032646 8 316 0.0 0.0 0.00 1.73 1.73 98 987.6
20260506032143 8 357 0.0 0.0 0.13 1.73 1.73 98 987.8
20260506031640 8 322 0.0 0.0 0.13 1.73 1.73 98 987.9
20260506031136 8 242 1.6 1.6 0.18 1.70 1.70 98 987.9
20260506030636 8 318 0.0 0.0 0.18 1.70 1.70 98 988.0
20260506030132 8 315 0.0 0.0 0.13 1.68 1.68 98 988.1
20260506025629 8 305 0.0 0.0 0.13 1.68 1.68 98 988.2
20260506025125 8 267 1.6 1.6 0.00 1.65 1.65 98 988.1
20260506024623 8 317 0.0 0.0 0.18 1.65 1.65 98 988.0
20260506024119 8 266 0.0 1.6 0.18 1.65 1.65 98 988.2
20260506023615 8 267 0.0 0.0 0.00 1.63 1.63 97 987.9
20260506023113 8 2 0.0 0.0 0.13 1.63 1.63 97 987.9
20260506022610 8 320 0.0 0.0 0.30 1.63 1.63 97 987.8
20260506022107 8 305 0.0 0.0 0.30 1.60 1.60 97 988.0
20260506021605 8 304 0.0 1.6 0.13 1.57 1.57 97 988.0
20260506021102 8 259 0.0 1.6 0.30 1.57 1.57 97 988.1
20260506020559 8 242 0.0 1.6 0.30 1.55 1.55 97 987.8
20260506020056 8 245 0.0 1.6 0.43 1.52 1.52 97 988.0
20260506015554 8 231 0.0 1.6 0.48 1.50 1.50 97 987.7
20260506015050 8 267 0.0 1.6 0.30 1.47 1.47 97 987.8
20260506014548 8 264 0.0 0.0 0.30 1.42 1.42 97 987.6
20260506014043 8 249 1.6 3.2 0.30 1.40 1.40 97 987.5
20260506013542 9 306 0.0 0.0 0.18 1.37 1.37 97 987.6
20260506013038 9 263 0.0 0.0 0.13 1.35 1.35 97 987.7
20260506012534 8 275 0.0 0.0 0.13 1.35 1.35 97 987.6
20260506012031 9 273 1.6 1.6 0.18 1.32 1.32 97 987.5
20260506011529 9 256 1.6 1.6 0.18 1.32 1.32 97 987.3
20260506011025 9 255 1.6 1.6 0.00 1.30 1.30 97 987.3
20260506010525 9 321 0.0 0.0 0.13 1.30 1.30 97 987.1
20260506010021 9 330 0.0 0.0 0.13 1.30 1.30 96 987.2
20260506005518 9 309 0.0 0.0 0.00 1.27 1.27 96 987.1
20260506005013 9 321 0.0 0.0 0.18 1.27 1.27 96 987.2
20260506004511 9 312 0.0 0.0 0.30 1.27 1.27 96 987.3
20260506004008 9 307 0.0 0.0 0.13 1.24 1.24 96 987.5
20260506003504 9 320 0.0 0.0 0.18 1.22 1.22 96 987.2
20260506003000 9 303 0.0 0.0 0.30 1.22 1.22 96 987.6
20260506002456 9 321 0.0 0.0 0.30 1.19 1.19 95 987.3
20260506001952 9 263 0.0 1.6 0.30 1.17 1.17 95 987.3
20260506001449 9 250 1.6 1.6 0.30 1.14 1.14 95 987.3
20260506000946 9 243 1.6 1.6 0.36 1.12 1.12 95 987.1
20260506000445 9 260 0.0 0.0 0.48 1.12 1.12 95 987.5
20260505235940 9 261 1.6 1.6 0.30 1.07 1.07 95 987.1
20260505235439 9 285 1.6 1.6 0.18 1.04 1.04 94 987.2
20260505234935 9 261 1.6 1.6 0.13 1.02 1.02 94 987.2
20260505234433 9 268 1.6 1.6 0.30 1.02 1.02 94 987.1
20260505233929 9 274 1.6 1.6 0.18 0.99 0.99 94 986.8
20260505233427 10 246 1.6 1.6 0.18 0.99 0.99 94 986.8
20260505232924 10 239 1.6 1.6 0.13 0.97 0.97 94 987.2
20260505232422 10 321 0.0 0.0 0.13 0.97 0.97 94 987.1
20260505231919 10 326 0.0 0.0 0.00 0.94 0.94 94 986.9
20260505231416 10 318 0.0 0.0 0.00 0.94 0.94 94 986.9
20260505230914 10 322 0.0 0.0 0.18 0.94 0.94 94 986.9
20260505230412 10 323 0.0 0.0 0.00 0.91 0.91 94 987.0
20260505225908 10 323 0.0 0.0 0.00 0.91 0.91 94 987.0
20260505225405 10 318 0.0 0.0 0.00 0.91 0.91 94 987.0
20260505224901 10 321 0.0 0.0 0.00 0.91 0.91 94 986.8
20260505224358 10 303 0.0 0.0 0.00 0.91 0.91 94 987.0
20260505223855 10 297 0.0 0.0 0.00 0.91 0.91 94 987.0
20260505223352 10 335 0.0 0.0 0.00 0.91 0.91 93 987.0
20260505222847 10 261 0.0 0.0 0.13 0.91 0.91 93 987.3
20260505222344 10 328 0.0 0.0 0.13 0.91 0.91 93 987.2
20260505221841 10 69 0.0 0.0 0.18 0.89 0.89 93 987.0
20260505221338 10 170 0.0 0.0 0.30 0.89 0.89 92 987.2
20260505220835 10 334 0.0 0.0 0.30 0.86 0.86 94 987.0
20260505220332 10 34 0.0 0.0 0.30 0.84 0.84 94 986.7
20260505215830 10 342 0.0 0.0 0.30 0.81 0.81 93 986.8
20260505215328 10 340 0.0 0.0 0.36 0.79 0.79 93 987.2
20260505214825 10 3 0.0 0.0 0.30 0.76 0.76 93 986.9
20260505214323 10 6 0.0 0.0 0.13 0.74 0.74 93 986.8
20260505213819 10 354 0.0 0.0 0.18 0.71 0.71 93 986.7
20260505213318 10 337 0.0 0.0 0.30 0.71 0.71 93 986.8
20260505212813 11 18 0.0 0.0 0.30 0.69 0.69 93 987.0
20260505212310 11 357 0.0 0.0 0.18 0.66 0.66 93 986.9
20260505211806 11 342 0.0 0.0 0.13 0.64 0.64 93 986.9
20260505211304 11 281 0.0 0.0 0.30 0.64 0.64 93 986.6
20260505210800 11 342 0.0 0.0 0.30 0.61 0.61 93 986.5
20260505210258 11 311 0.0 0.0 0.30 0.58 0.58 93 986.5
20260505205754 11 29 0.0 0.0 0.30 0.58 0.58 93 986.5
20260505205253 11 24 1.6 1.6 0.30 0.56 0.56 92 986.7
20260505204749 11 8 0.0 0.0 0.30 0.53 0.53 92 986.5
20260505204247 11 321 0.0 0.0 0.18 0.51 0.51 92 986.7
20260505203744 11 313 0.0 0.0 0.18 0.48 0.48 92 986.8
20260505203241 11 341 0.0 0.0 0.30 0.48 0.48 92 986.6
20260505202736 11 329 0.0 0.0 0.13 0.46 0.46 91 986.6
20260505202233 11 298 1.6 1.6 0.18 0.43 0.43 91 986.7
20260505201729 11 246 0.0 1.6 0.18 0.43 0.43 91 987.0
20260505201227 11 350 0.0 0.0 0.00 0.41 0.41 91 987.0
20260505200725 11 340 0.0 0.0 0.00 0.41 0.41 92 986.9
20260505200222 11 344 0.0 0.0 0.00 0.41 0.41 91 987.2
20260505195717 11 247 0.0 1.6 0.13 0.41 0.41 90 987.1
20260505195215 11 280 1.6 3.2 0.13 0.41 0.41 90 987.3
20260505194712 11 243 1.6 1.6 0.00 0.38 0.38 90 987.2
20260505194209 11 290 3.2 4.8 0.18 0.38 0.38 91 987.3
20260505193705 11 283 1.6 3.2 0.18 0.38 0.38 91 987.1
20260505193202 11 297 0.0 1.6 0.13 0.36 0.36 92 987.3
20260505192701 11 257 3.2 3.2 0.30 0.36 0.36 91 987.3
20260505192158 11 277 3.2 6.4 0.18 0.33 0.33 92 987.3
20260505191656 11 305 1.6 1.6 0.13 0.30 0.30 92 987.3
20260505191154 11 296 3.2 3.2 0.13 0.30 0.30 91 987.3
20260505190650 11 265 3.2 4.8 0.18 0.28 0.28 90 987.1
20260505190149 11 249 1.6 3.2 0.18 0.28 0.28 91 987.1
20260505185647 11 319 1.6 1.6 0.30 0.28 0.28 90 986.7
20260505185143 11 238 3.2 3.2 0.43 0.25 0.25 90 986.8
20260505184639 12 244 3.2 3.2 0.30 0.23 0.23 89 987.2
20260505184136 12 251 0.0 1.6 0.30 0.20 0.20 89 987.1
20260505183633 12 256 1.6 3.2 0.36 0.18 0.18 87 986.9
20260505183131 12 248 4.8 6.4 0.30 0.15 0.15 86 986.7
20260505182627 13 242 3.2 3.2 0.30 0.13 0.13 86 986.8
20260505182124 13 263 3.2 3.2 0.30 0.10 0.10 85 986.6
20260505181621 13 277 1.6 1.6 0.30 0.08 0.08 83 986.5
20260505181118 13 309 0.0 0.0 0.18 0.05 0.05 81 986.3
20260505180614 13 275 0.0 1.6 0.13 0.03 0.03 78 986.4
20260505180112 13 247 3.2 4.8 0.13 0.03 0.03 75 986.2
20260505175607 14 277 3.2 3.2 0.00 0.00 0.00 73 986.1
20260505175104 14 237 1.6 3.2 0.00 0.00 0.00 73 986.1
20260505174601 15 246 0.0 1.6 0.00 0.00 0.00 71 986.2
20260505174056 15 273 1.6 1.6 0.00 0.00 0.00 69 986.1
20260505173553 15 238 3.2 3.2 0.00 0.00 0.00 67 986.1
20260505173050 15 245 0.0 1.6 0.00 0.00 0.00 69 986.1
20260505172548 15 287 0.0 0.0 0.00 0.00 0.00 69 986.3
20260505172044 15 262 1.6 1.6 0.00 0.00 0.00 67 986.3
20260505171539 15 298 0.0 0.0 0.00 0.00 0.00 70 986.3
20260505171036 15 253 1.6 3.2 0.00 0.00 0.00 71 986.5
20260505170533 15 282 0.0 0.0 0.00 0.00 0.00 72 986.2
20260505170029 15 293 0.0 1.6 0.00 0.00 0.00 73 986.3
20260505165525 15 1 3.2 3.2 0.00 0.00 0.00 73 986.2
20260505165021 15 268 3.2 4.8 0.00 0.00 0.00 72 986.2
20260505164517 15 338 1.6 1.6 0.00 0.00 0.00 73 986.4
20260505164015 16 237 3.2 4.8 0.00 0.00 0.00 73 986.4
20260505163513 16 289 1.6 3.2 0.00 0.00 0.00 72 986.3
20260505163010 16 257 3.2 4.8 0.00 0.00 0.00 71 986.3
20260505162503 16 319 3.2 6.4 0.00 0.00 0.00 72 986.3
20260505162000 16 267 4.8 9.7 0.00 0.00 0.00 71 986.2
20260505161456 16 267 3.2 3.2 0.00 0.00 0.00 72 986.4
20260505160954 16 277 4.8 6.4 0.00 0.00 0.00 71 986.2
20260505160452 16 241 6.4 6.4 0.00 0.00 0.00 72 986.4